This demonstration page uses our WeatherBlox Daily Observations layout. Learn more.

Left ArrowRight Arrow

Hourly Observations for May 18, 2015

Temp ( °F °C ) Dew Point ( °F °C ) Humidity (%) Winds ( mph kmh ) Pressure ( in mb ) Visibility ( mi km ) Precip ( " mm )
12:52 am 00:52 Clear 56 13.3 48 8.9 75 75 NNW 21 33 30.00 1016 10 16 0.00 0.00
1:52 am 01:52 Clear 54 12.2 45 7.2 72 72 NNW 14 22 30.04 1017 10 16 0.00 0.00
2:52 am 02:52 Clear 52 11.1 43 6.1 72 72 NNW 15 24 30.08 1019 10 16 0.00 0.00
3:52 am 03:52 Clear 51 10.6 40 4.4 66 66 NW 18 30 30.10 1019 10 16 0.00 0.00
4:52 am 04:52 Mostly Cloudy 50 10 40 4.4 68 68 NW 16 26 30.12 1020 10 16 0.00 0.00
5:52 am 05:52 Cloudy 50 10 39 3.9 66 66 NW 18 30 30.15 1021 10 16 0.00 0.00
6:52 am 06:52 Partly Cloudy 47 8.3 35 1.7 63 63 NW 20 31 30.19 1022 10 16 0.00 0.00
7:52 am 07:52 Mostly Cloudy 48 8.9 36 2.2 63 63 NNW 14 22 30.22 1023 10 16 0.00 0.00
8:52 am 08:52 Mostly Cloudy 49 9.4 36 2.2 61 61 NNW 20 31 30.25 1024 10 16 0.00 0.00
9:52 am 09:52 Partly Cloudy 49 9.4 34 1.1 56 56 NNW 21 33 30.27 1025 10 16 0.00 0.00
10:52 am 10:52 Partly Cloudy 50 10 36 2.2 59 59 NNW 17 28 30.29 1026 10 16 0.00 0.00
11:52 am 11:52 Partly Cloudy 53 11.7 36 2.2 52 52 NNW 18 30 30.30 1026 10 16 0.00 0.00
12:52 pm 12:52 Partly Cloudy 54 12.2 37 2.8 53 53 NNW 17 28 30.31 1026 10 16 0.00 0.00
1:52 pm 13:52 Partly Cloudy 57 13.9 39 3.9 51 51 NNW 17 28 30.30 1026 10 16 0.00 0.00
2:52 pm 14:52 Mostly Sunny 59 15 39 3.9 48 48 NW 22 35 30.30 1026 10 16 0.00 0.00
3:52 pm 15:52 Mostly Sunny 60 15.6 39 3.9 46 46 NNW 20 31 30.29 1026 10 16 0.00 0.00
4:52 pm 16:52 Mostly Sunny 60 15.6 39 3.9 46 46 NNW 16 26 30.30 1026 10 16 0.00 0.00
5:52 pm 17:52 Mostly Sunny 60 15.6 39 3.9 46 46 N 17 28 30.30 1026 10 16 0.00 0.00
6:52 pm 18:52 Mostly Sunny 59 15 38 3.3 46 46 NNW 14 22 30.30 1026 10 16 0.00 0.00
7:52 pm 19:52 Mostly Sunny 57 13.9 38 3.3 49 49 NNW 13 20 30.30 1026 10 16 0.00 0.00
8:52 pm 20:52 Mostly Clear 54 12.2 39 3.9 57 57 N 12 19 30.31 1027 10 16 0.00 0.00
9:52 pm 21:52 Clear 51 10.6 40 4.4 66 66 N 7 11 30.33 1027 10 16 0.00 0.00
10:52 pm 22:52 Clear 49 9.4 40 4.4 71 71 N 7 11 30.36 1028 10 16 0.00 0.00
11:52 pm 23:52 Clear 47 8.3 39 3.9 74 74 N 9 15 30.37 1028 10 16 0.00 0.00

Powered by AerisWeather